Regional Weather Roundup
Issued by NWS Northern Indiana

Home | Current Version | Previous Version | Graphics & Text | Print | Product List | Glossary On
Versions: 1 2 3 4 5 6 7 8 9 10 11 12 13 14 15 16 17 18 19 20 21 22 23 24 25 26 27 28 29 30 31 32 33 34 35 36 37 38 39 40 41 42 43 44 45 46 47 48 49 50
000
ASUS43 KIWX 062310
RWRIWX

KIWX WEATHER ROUNDUP
NATIONAL WEATHER SERVICE NORTHERN INDIANA
700 PM EDT MON JUL 06 2015

NOTE: "FAIR" INDICATES FEW OR NO CLOUDS BELOW 12,000 FEET WITH NO
SIGNIFICANT WEATHER AND/OR OBSTRUCTIONS TO VISIBILITY.

* THESE STATIONS ARE NOT UNDER NWS QUALITY CONTROL. THEY ALSO MAY NOT
  REPORT WEATHER SUCH AS PRECIPITATION OR FOG.

INZ001>027-070000-
NORTHERN INDIANA

CITY           SKY/WX    TMP DP  RH WIND       PRES   REMARKS
GARY*          PTSUNNY  N/A N/A N/A S8        29.89F
VALPARAISO     PTSUNNY   82  70  66 SW5       29.91F
MICHIGAN CITY* HVY RAIN  70  68  94 SE7G16    29.91S VSB 1
LAPORTE*       PTSUNNY   83  70  63 SW9       29.92S
KNOX*          PTSUNNY   81  66  61 S10       29.90F
SOUTH BEND     PTSUNNY   83  69  62 S15       29.92F
ELKHART*       MOSUNNY   82  64  54 S10       29.93F
GOSHEN         MOSUNNY   81  66  60 SW10      29.94F
MONTICELLO*    PTSUNNY   82  73  72 S7        29.92F
LOGANSPORT*    PTSUNNY   81  63  54 S7        29.95F
ROCHESTER*     MOSUNNY   86  70  58 S8        29.95S
WARSAW*          N/A     81  64  57 S3        29.94F
ANGOLA*          N/A     82  66  57 S10       29.95F
FORT WAYNE     MOSUNNY   83  66  56 S13       29.96F
HUNTINGTON*    MOSUNNY   82  65  57 S7G16     29.95F
PERU/GRISSOM   MOSUNNY   82  69  64 SW9       29.94F
MARION*        MOSUNNY   82  64  55 SW8       29.97F

$$
INZ028>050-070000-
CENTRAL INDIANA

CITY           SKY/WX    TMP DP  RH WIND       PRES   REMARKS
LAFAYETTE      PTSUNNY   83  71  67 S7        29.92F
KOKOMO*        MOSUNNY   82  66  57 SW10      29.96S
MUNCIE*        SUNNY     83  64  52 SW10      29.98F
INDIANAPOLIS   MOSUNNY   83  68  60 S9        29.96F

$$
MIZ043>046-050>051-056>058-064>065-071>073-077>080-070000-
SOUTHWEST LOWER MICHIGAN

CITY           SKY/WX    TMP DP  RH WIND       PRES   REMARKS
BATTLE CREEK   PTSUNNY   84  66  54 S13       29.93F
BENTON HARBOR  CLOUDY    83  69  62 S8        29.88F
COLDWATER*     MOSUNNY   80  65  59 SW6       29.94F
HILLSDALE*     MOSUNNY   81  65  56 S7        29.96F
HOLLAND        CLOUDY    83  67  58 S13       29.87F
GRAND RAPIDS   PTSUNNY   82  66  58 S12       29.88F
KALAMAZOO      PTSUNNY   82  66  58 S12       29.92F
STURGIS*       MOSUNNY   81  66  61 SW9       29.94S
THREE RIVERS*  FAIR      82  66  57 S10       29.92F

$$
OHZ001>008-015>018-024>025-070000-
NORTHWEST OHIO

CITY           SKY/WX    TMP DP  RH WIND       PRES   REMARKS
DEFIANCE       MOSUNNY   84  64  50 S10       29.95F
FINDLAY        SUNNY     83  63  50 S9        29.98S
TOLEDO EXPRESS SUNNY     82  63  52 S3        29.95F
TOLEDO METCALF SUNNY     83  61  47 S9        29.97F
LIMA           SUNNY     81  64  56 SW7       29.99S

$$
AND FOR LAKE MICHIGAN COASTAL AND OPEN LAKE BUOY OBSERVATIONS

STATION/POSITION TEMP    WIND        PRES    VSBY  WAVE
                 AIR SEA DIR/SP/G                  HT/PER
                 (F)     (DEG/KT/KT) (MB)    (MI)  (FT/S)
CALUMET HARBOR    76     130/  6/  8   N/A
MICHIGAN CITY     78     310/  6/  9   N/A
BURNS HARBOR      71     290/ 19     1013.2F
SAINT JOSEPH      75     180/  6/ 10 1012.2F
4 MI NW BRIDGMAN  72 67  240/  6/  6   N/A           1/ 3
MICHIGAN CITY     70 68  180/ 10/ 14   N/A           1/ 2

$$
&&


USA.gov is the U.S. government's official web portal to all federal, state and local government web resources and services.